This is the latest recevied weather packets stored in our database for station/object K7OWW-2. If no packets are shown the sender has not sent any weather packets the latest 10 day(s).
| Time | Temp. | Humidity | Pressure | Rain* | Wind** | Luminosity | Snow |
|---|---|---|---|---|---|---|---|
| 1788336529 | 5.56° C | 91% | 1010.8 hPa | 0 mm | - | - | - |
| 1788335929 | 5.56° C | 90% | 1010.7 hPa | 0 mm | - | - | - |
| 1788335329 | 6.11° C | 91% | 1010.6 hPa | 0 mm | - | - | - |
| 1788334729 | 6.11° C | 91% | 1010.6 hPa | 0 mm | - | - | - |
| 1788334129 | 6.11° C | 90% | 1010.6 hPa | 0 mm | - | - | - |
| 1788333529 | 6.67° C | 89% | 1010.6 hPa | 0 mm | - | - | - |
| 1788332929 | 7.22° C | 89% | 1010.5 hPa | 0 mm | - | - | - |
| 1788332329 | 7.78° C | 88% | 1010.3 hPa | 0 mm | - | - | - |
| 1788331729 | 7.78° C | 88% | 1010.4 hPa | 0 mm | - | - | - |
| 1788331129 | 8.33° C | 87% | 1010.3 hPa | 0 mm | - | - | - |
| 1788330529 | 8.33° C | 87% | 1010.5 hPa | 0 mm | - | - | - |
| 1788329929 | 8.33° C | 87% | 1010.5 hPa | 0 mm | - | - | - |
| 1788329329 | 8.33° C | 87% | 1010.6 hPa | 0 mm | - | - | - |
| 1788328729 | 8.89° C | 86% | 1010.5 hPa | 0 mm | - | - | - |
| 1788328129 | 8.89° C | 85% | 1010.3 hPa | 0 mm | - | - | - |
| 1788327832 | 8.89° C | 85% | 1010.3 hPa | 0 mm | - | - | - |
| 1788327529 | 8.89° C | 85% | 1010.5 hPa | 0 mm | - | - | - |
| 1788326929 | 8.89° C | 85% | 1010.5 hPa | 0 mm | - | - | - |
| 1788326329 | 8.89° C | 86% | 1010.5 hPa | 0 mm | - | - | - |
| 1788326031 | 8.89° C | 85% | 1010.6 hPa | 0 mm | - | - | - |
| 1788325729 | 8.89° C | 85% | 1010.6 hPa | 0 mm | - | - | - |
| 1788325129 | 9.44° C | 84% | 1010.4 hPa | 0 mm | - | - | - |
| 1788324529 | 9.44° C | 84% | 1010.6 hPa | 0 mm | - | - | - |
| 1788323929 | 9.44° C | 84% | 1010.7 hPa | 0 mm | - | - | - |
| 1788323329 | 9.44° C | 83% | 1010.5 hPa | 0 mm | - | - | - |
* Rain latest hour (hover to see other rain measurements)
** Current wind speed in m/s (hover to see current wind gust speed)